Nassau, Bahamas

4:29 AM EST on December 18, 2017 (GMT -0500)
Nassau International

Weather History for MYNN - November, 2013

Change the Weather History Date:

Saturday, November 2, 2013

  Actual Average Record
Temperature  
Mean Temperature 82 °F -  
Max Temperature 91 °F 82 °F 91 °F (1997)
Min Temperature 74 °F 68 °F 60 °F (1998)
Cooling Degree Days 18    
Growing Degree Days 32 (Base 50)    
Moisture  
Dew Point 73 °F    
Average Humidity 76    
Maximum Humidity 95    
Minimum Humidity 55    
Precipitation  
Precipitation 0.00 in 0.07 in - ()
Sea Level Pressure  
Sea Level Pressure 29.91 in    
Wind  
Wind Speed 2 mph ()    
Max Wind Speed 7 mph    
Max Gust Speed -    
Visibility 6.7 miles    
Events      
Averages and records for this station are not official NWS values.
T = Trace of Precipitation, MM = Missing Value Source: Averaged Metar Reports

Daily Weather History Graph

Daily Weather History Graph

Search for Another Location

Airport or City:

Trip Planner

Search our weather history database for the weather conditions in past years. The results will help you decide how hot, cold, wet, or windy it might be!

Date:

Astronomy

Nov. 02, 2013 Rise Set
Actual Time 7:18 AM EDT 6:28 PM EDT
Civil Twilight 6:54 AM EDT 6:52 PM EDT
Nautical Twilight 6:27 AM EDT 7:19 PM EDT
Astronomical Twilight 6:00 AM EDT 7:46 PM EDT
Moon 6:17 AM EDT (11/2) 5:56 PM EDT (11/2)
Length of Visible Light 11h 57m
Length of Day
11h 10m
Waning Crescent, 1% of the Moon is Illuminated
Nov 2
Waning Crescent
Nov 3
New
Nov 10
First Quarter
Nov 17
Full
Nov 25
Last Quarter

Hourly Weather History & Observations

Time (EDT) Temp. Heat Index Dew Point Humidity Pressure Visibility Wind Dir Wind Speed Gust Speed Precip Events Conditions
12:00 AM 78.8 °F - 73.4 °F 83% 29.97 in 6.2 mi Variable 2.3 mph - N/A   Partly Cloudy
2:00 AM 78.8 °F - 75.2 °F 89% 29.93 in 6.2 mi Calm Calm - N/A   Scattered Clouds
3:00 AM 77.0 °F - 71.6 °F 83% 29.92 in 6.2 mi Calm Calm - N/A   Scattered Clouds
4:00 AM 77.0 °F - 71.6 °F 83% 29.91 in 6.2 mi Calm Calm - N/A   Scattered Clouds
5:00 AM 77.0 °F - 71.6 °F 83% 29.91 in 6.2 mi Calm Calm - N/A   Scattered Clouds
6:00 AM 75.2 °F - 71.6 °F 89% 29.91 in 6.2 mi Calm Calm - N/A   Scattered Clouds
7:00 AM 75.2 °F - 73.4 °F 94% 29.92 in 6.2 mi Calm Calm - N/A   Scattered Clouds
8:00 AM 75 °F - 74 °F 95% 29.93 in 9 mi Calm Calm - -   Partly Cloudy
8:00 AM 75.2 °F - 73.4 °F 94% 29.93 in 6.2 mi Calm Calm - N/A   Partly Cloudy
9:00 AM 80.6 °F 86.2 °F 75.2 °F 84% 29.94 in 6.2 mi East 3.5 mph - N/A   Partly Cloudy
10:00 AM 82.4 °F 88.2 °F 73.4 °F 74% 29.96 in 6.2 mi SSE 4.6 mph - N/A   Partly Cloudy
11:00 AM 85 °F - 73 °F 60% 29.95 in 9 mi South 6.9 mph - -   Partly Cloudy
11:00 AM 86.0 °F 93.4 °F 73.4 °F 66% 29.95 in 6.2 mi South 6.9 mph - N/A   Scattered Clouds
12:00 PM 86.0 °F 91.8 °F 71.6 °F 62% 29.93 in 6.2 mi South 4.6 mph - N/A   Scattered Clouds
1:00 PM 86.0 °F 90.4 °F 69.8 °F 58% 29.91 in 6.2 mi South 5.8 mph - N/A   Partly Cloudy
2:00 PM 87.8 °F 93.8 °F 71.6 °F 58% 29.89 in 6.2 mi South 4.6 mph - N/A   Partly Cloudy
3:00 PM 87.8 °F 92.6 °F 69.8 °F 55% 29.86 in 6.2 mi South 3.5 mph - N/A   Partly Cloudy
4:00 PM 87.8 °F 92.6 °F 69.8 °F 55% 29.85 in 6.2 mi Variable 3.5 mph - N/A   Partly Cloudy
5:00 PM 87 °F - 77 °F 65% 29.86 in 9 mi North 4.6 mph - -   Partly Cloudy
5:00 PM 86.0 °F 96.9 °F 77.0 °F 74% 29.85 in 6.2 mi North 4.6 mph - N/A   Partly Cloudy
6:00 PM 82.4 °F 88.2 °F 73.4 °F 74% 29.85 in 6.2 mi North 4.6 mph - N/A   Partly Cloudy
7:00 PM 80.6 °F 85.4 °F 73.4 °F 79% 29.85 in 6.2 mi North 2.3 mph - N/A   Partly Cloudy
8:00 PM 81 °F - 75 °F 78% 29.88 in 9 mi Calm Calm - -   Scattered Clouds
8:00 PM 80.6 °F 86.2 °F 75.2 °F 84% 29.87 in 6.2 mi Calm Calm - N/A   Partly Cloudy
9:00 PM 78.8 °F - 71.6 °F 78% 29.90 in 6.2 mi West 5.8 mph - N/A   Partly Cloudy
10:00 PM 78.8 °F - 73.4 °F 83% 29.91 in 6.2 mi West 2.3 mph - N/A   Partly Cloudy
11:00 PM 80 °F - 74 °F 76% 29.92 in 9 mi North 3.5 mph - -   Partly Cloudy
11:00 PM 80.6 °F 85.4 °F 73.4 °F 79% 29.91 in 6.2 mi North 3.5 mph - N/A   Scattered Clouds